[Date Prev][Date Next][Thread Prev][Thread Next] - [Date Index][Thread Index][Author Index]
2 Line ISS Keps 6-2
- Subject: [sarex] 2 Line ISS Keps 6-2
- From: "Dave Larsen PhD" <doc@xxxxxxxxxxx>
- Date: Thu, 2 Jun 2005 04:42:48 -0700
ISS
1 25544U 98067A 05153.29454861 .00025436 00000-0 19113-3 0 6066
2 25544 051.6466 337.2174 0005001 193.4073 157.0568 15.72393441373330
----
Via the sarex mailing list at AMSAT.ORG courtesy of AMSAT-NA.
To unsubscribe, send "unsubscribe sarex" to Majordomo@amsat.org
AMSAT Home